Zurück zum Katalog

DELTA 1 DEB

AktivSSO
NORAD 21473·DEBRIS·🇺🇸 United States

Gestartet Jun 12, 1975 von Vandenberg Space Force Base

Loading…

Nächste Überflüge (nächste 24 Stunden)

TLE

AktuellSource: Space-Track

Epoche: Sep 14, 2026, 00:50 UTC

1 21473U 75052FH  26257.03531314  .00000429  00000-0  51233-3 0  9990
2 21473  99.9215  89.2698 0239742 103.3141  46.3286 13.61430496745356

Verfolge DELTA 1 DEB in Echtzeit mit AllMySat

Download on the App Store